Weather Roundup
Issued by NWS

Home | Current Version | Previous Version | Graphics & Text | Print | Product List | Glossary Off
Versions: 1 2 3 4 5 6 7 8 9 10 11 12 13 14 15 16 17 18 19 20 21 22 23 24 25 26 27 28 29 30 31 32 33 34 35 36 37 38 39 40 41 42 43 44 45 46 47 48 49 50

687
NZUS93 KARX 220010
HRRWXR

CURRENT HOURLY OBSERVATIONS ACROSS
MUCH OF THE UPPER MISSISSIPPI VALLEY
NATIONAL WEATHER SERVICE LA CROSSE WI
600 PM CST SUN JAN 21 2018


...SOUTHEAST MINNESOTA...


CITY           SKY/WX    TMP DP  RH WIND       PRES   REMARKS
ROCHESTER      CLOUDY    36  30  79 N10       29.89S WCI  28
ROCHESTER/MAYO CLOUDY    38  30  74 N7        29.90S WCI  33
WINONA         CLOUDY    37  32  81 N5        29.89F WCI  34
AUSTIN         CLOUDY    36  30  80 NE8       29.87R WCI  29
ALBERT LEA     CLOUDY    36  30  80 NE9       29.88R WCI  29
DODGE CENTER   CLOUDY    36  28  75 N10       29.89R WCI  28
PRESTON        CLOUDY    36  31  81 NE6       29.88F WCI  31
OWATONNA       CLOUDY    36  30  80 NE9       29.90S WCI  29
FARIBAULT      CLOUDY    36  30  80 N8        29.92S WCI  29
$$

...ELSEWHERE IN MINNESOTA...


CITY           SKY/WX    TMP DP  RH WIND       PRES   REMARKS
MINNEAPOLIS    CLOUDY    37  30  75 NE8       29.95R WCI  31
INTNL FALLS    CLOUDY    26  23  88 CALM      30.07R FOG
DULUTH         FOG       30  29  96 E12       30.01R VSB 1/4 WCI  20
RED WING       FAIR      37  27  65 CALM      29.93S
REDWOOD FALLS  CLOUDY    35  30  82 N8        29.94R WCI  29
MANKATO        CLOUDY    36  30  79 NE8       29.92R WCI  30
WORTHINGTON    CLOUDY    34  30  85 N17       29.89R WCI  23
FAIRMONT       CLOUDY    36  32  85 N12       29.88S WCI  28
$$

...SOUTHWEST WISCONSIN...


CITY           SKY/WX    TMP DP  RH WIND       PRES   REMARKS
LA CROSSE      CLOUDY    36  31  82 CALM      29.91S
PRAIRIE DU CHI DRIZZLE   33  32  96 CALM      29.89S
BOSCOBEL       CLOUDY    36  35  96 NE6       29.90S FOG     WCI  31
LONE ROCK      CLOUDY    37  37 100 NE7       29.91S FOG     WCI  32
PLATTEVILLE    CLOUDY    38  38 100 E10       29.86S WCI  31
FORT MC COY    CLOUDY    37  32  83 E3        29.92S
CAMP DOUGLAS   CLOUDY    38  33  80 E3        29.92R
MAUSTON-NEW LI CLOUDY    36  33  87 CALM      29.92R
VIROQUA        CLOUDY    38  35  89 NE7       29.89S WCI  33
WIS DELLS      CLOUDY    35  33  93 E5        29.92R FOG     WCI  31
$$

...ELSEWHERE IN WISCONSIN...


CITY           SKY/WX    TMP DP  RH WIND       PRES   REMARKS
MILWAUKEE      FOG       37  36  96 NE6       29.94R VSB 1/4 WCI  32
MADISON        DRIZZLE   37  37 100 E5        29.92R FOG     WCI  33
GREEN BAY      FAIR      34  30  85 NE7       29.98R FOG     WCI  28
EAU CLAIRE     CLOUDY    37  29  72 N7        29.94R WCI  32
BLACK RVR FLS  CLOUDY    41  30  64 NE6       29.92S
MEDFORD        CLOUDY    36  30  77 NE9       29.92F WCI  29
WAUSAU         CLOUDY    40  29  64 NE6       29.92R
WIS RAPIDS     CLOUDY    40  30  67 E5        29.94R
MARSHFIELD     FAIR      38  30  73 NE7       29.91S WCI  33
RICE LAKE      CLOUDY    36  31  81 N8        29.97R WCI  30
$$

...NORTHEAST IOWA...


CITY           SKY/WX    TMP DP  RH WIND       PRES   REMARKS
WATERLOO       LGT RAIN  37  36  96 E13       29.83S FOG     WCI  29
DUBUQUE        FOG       37  36  96 NE9       29.84F VSB 3/4 WCI  30
DECORAH        CLOUDY    36  36 100 NE6       29.87S FOG     WCI  31
MASON CITY     CLOUDY    36  32  85 NE10      29.86R WCI  28
CHARLES CITY   CLOUDY    36  36 100 NE14      29.85S FOG     WCI  27
OELWEIN        MIX PCPN  37  37 100 NE10      29.84S WCI  30
$$

...ELSEWHERE IN IOWA...


CITY           SKY/WX    TMP DP  RH WIND       PRES   REMARKS
DES MOINES     FOG       41  40  96 NE8       29.76S VSB 1/8
IOWA CITY      CLOUDY    43  40  89 NE5       29.81F FOG
FORT DODGE     MIX PCPN  36  35  96 NE12      29.81F FOG     WCI  28
MARSHALLTOWN   CLOUDY    38  38 100 E10       29.78F FOG     WCI  31
CEDAR RAPIDS   FOG       40  39  97 E10       29.79F VSB 1/2 WCI  33
$$

...NORTHERN ILLINOIS...


CITY           SKY/WX    TMP DP  RH WIND       PRES   REMARKS
CHICAGO-OHARE  FOG       42  40  92 E5        29.91R VSB 1/8
CHICAGO-MIDWAY DRZL/FOG  43  42  97 E5        29.92R VSB 3/4
MOLINE         FOG       44  42  93 E8        29.81F VSB 1
ROCKFORD       DRZL/FOG  39  39 100 E5        29.91R VSB 1/8
PEORIA         CLOUDY    55  51  86 S12G18    29.85S FOG
$$

NOTE: "FAIR" INDICATES FEW OR NO CLOUDS BELOW 12,000 FEET WITH NO
SIGNIFICANT WEATHER AND/OR OBSTRUCTIONS TO VISIBILITY. WIND
SPEEDS ARE IN MILES-PER-HOUR.




USA.gov is the U.S. government's official web portal to all federal, state and local government web resources and services.